sat.trackr.live / text

‹ back to catalog

STARLINK-36639

NORAD 67669 · 2026-022X

PAYLOAD ACTIVE UNKNOWN

§ Identity

Operator
Country
US
Launch date
2026-02-02
Launch site
AFWTR
Launch vehicle
Mass (kg)
RCS (m²)

Purposes: comms

External: N2YO · Heavens-Above · Gunter

§ Orbital elements

Epoch: 2026-05-25T02:25:15.316608Z

Period
93.91 min
Inclination
97.2853°
Eccentricity
0.0000104
Mean motion
15.33451061 rev/d
Perigee alt
465.5 km
Apogee alt
465.6 km
Semi-major
6,843.7 km
B*
6.6862e-4
RAAN
178.3698°
Arg perigee
65.2654°
Mean anomaly
294.8599°
Rev number
1,728

§ Raw data

STARLINK-366391 67669U 26022X   26145.10087172  .00021576  00000+0  66862-3 0  99912 67669  97.2853 178.3698 0000104  65.2654 294.8599 15.33451061 17288

JSON: /api/v1/satellites/67669 · /tle

For live sub-satellite position, see the globe view (requires WebGL).

§ Visibility from observer

Set your observer location to see the next 7 days of passes ≥ 10°. The values pass through the URL so the page stays shareable.

No JS? Fill the form by hand. The geolocation button needs JavaScript.